Regional Weather Roundup
Issued by NWS

Home | Current Version | Previous Version | Text Only | Print | Product List | Glossary Off
Versions: 1 2 3 4 5 6 7 8 9 10 11 12 13 14 15 16 17 18 19 20 21 22 23 24 25 26 27 28 29 30 31 32 33 34 35 36 37 38 39 40 41 42 43 44 45 46 47 48 49 50

000
ASUS43 KDMX 271204
RWRIA

WEATHER ROUNDUP FOR IOWA
NATIONAL WEATHER SERVICE DES MOINES IA
  ISSUED BY NWS QUAD CITIES IA IL
600 AM CST TUE JAN 27 2015

NOTE: "FAIR" INDICATES FEW OR NO CLOUDS BELOW 12,000 FEET WITH NO
SIGNIFICANT WEATHER AND/OR OBSTRUCTIONS TO VISIBILITY.

* - THESE STATIONS ARE NOT NWS STATIONS...THUS NOT UNDER NWS
QUALITY CONTROL.  THEY ALSO DO NOT REPORT WEATHER SUCH
AS PRECIPITATION OR FOG.

IAZ001>003-012>014-020>022-031>034-043>046-271300-
   NORTHWEST IOWA

CITY           SKY/WX    TMP DP  RH WIND       PRES   REMARKS
CARROLL *      CLEAR     28  28 100 CALM      30.07S
CHEROKEE *     CLOUDY    29  29 100 CALM      30.08R
6HR MIN TEMP:  25; 6HR MAX TEMP:  33;

DENNISON *     CLEAR     27  27 100 CALM      30.06S
LE MARS *      CLEAR     28  28 100 CALM      30.08R
ORANGE CITY *  MOCLDY    30  28  93 CALM      30.06S FOG
SHELDON *      CLOUDY    30  30 100 NE7       30.06R FOG     WCI  23
SIOUX CITY     FOG       25  23  92 CALM      30.08S VSB 1/4
6HR MIN TEMP:  26; 6HR MAX TEMP:  34;

SPENCER        CLOUDY    31  29  92 NE8       30.07S WCI  23
6HR MIN TEMP:  28; 6HR MAX TEMP:  34;

STORM LAKE *   MOCLDY    30  30 100 NE6       30.07R WCI  24
$$

IAZ055>058-069>071-079>083-090>094-271300-
   SOUTHWEST IOWA

CITY           SKY/WX    TMP DP  RH WIND       PRES   REMARKS
ATLANTIC *     CLEAR     27  27 100 N3        30.08R
AUDUBON *      CLEAR     25  21  86 CALM      30.08R
CLARINDA *     CLEAR     23  23 100 CALM      30.11R FOG
COUNCIL BLFS * CLEAR     34  34 100 CALM      30.07S
CRESTON *      CLEAR     30  30 100 N9        30.07S WCI  22
HARLAN *       CLEAR     25  25 100 CALM      30.12R
LAMONI         CLEAR     27  26  96 NW5       30.07R WCI  22
6HR MIN TEMP:  27; 6HR MAX TEMP:  35;

RED OAK *      CLEAR     23  23 100 CALM      30.09R
SHENANDOAH *   CLEAR     23  23 100 SW5       30.11R WCI  17
$$

IAZ047>049-059>061-072>074-084-271300-
   CENTRAL IOWA

CITY           SKY/WX    TMP DP  RH WIND       PRES   REMARKS
AMES           CLEAR     30  27  88 N7        30.07S WCI  23
6HR MIN TEMP:  30; 6HR MAX TEMP:  39;

ANKENY *       CLEAR     30  28  93 N5        30.08S WCI  25
BOONE *        CLEAR     32  32 100 N9        30.06R WCI  24
CHARITON *     CLEAR     30  30 100 CALM      30.07S
DES MOINES     CLEAR     33  29  85 N3        30.08R
6HR MIN TEMP:  32; 6HR MAX TEMP:  38;

GRINNELL *     SUNNY     28  27  95 NW6       30.07R WCI  21
6HR MIN TEMP:  28; 6HR MAX TEMP:  34;

KNOXVILLE *    CLEAR     32  28  86 N5        30.06S WCI  27
MARSHALLTOWN   CLEAR     28  26  92 NW7       30.06R WCI  21
6HR MIN TEMP:  27; 6HR MAX TEMP:  34;

PELLA *        CLEAR     30  28  92 NW7       30.09R WCI  23
6HR MIN TEMP:  30; 6HR MAX TEMP:  39;

PERRY *          N/A     29  28  99 NW3       30.08R
6HR MIN TEMP:  29; 6HR MAX TEMP:  33;

$$

IAZ004>006-015-016-023>025-035-036-271300-
   NORTH CENTRAL IOWA

CITY           SKY/WX    TMP DP  RH WIND       PRES   REMARKS
ALGONA *       CLEAR     30  30 100 N5        30.08R WCI  25
CLARION *      CLEAR     30  30 100 N5        30.08R WCI  25
ESTHERVILLE    CLEAR     28  27  96 NW3       30.08R
6HR MIN TEMP:  28; 6HR MAX TEMP:  33;

FORT DODGE *   CLEAR     30  27  86 N3        30.09R
6HR MIN TEMP:  30; 6HR MAX TEMP:  36;

MASON CITY     CLOUDY    31  29  92 NW5       30.09R WCI  26
6HR MIN TEMP:  26; 6HR MAX TEMP:  34;

WEBSTER CITY * CLEAR     30  30 100 N5        30.06S WCI  25
IOWA FALLS *   FAIR      30  29  94 NW5       30.08R WCI  25
6HR MIN TEMP:  30; 6HR MAX TEMP:  36;

$$

IAZ007>011-017>019-026>030-037>042-050>054-066-271300-
   NORTHEAST IOWA

CITY           SKY/WX    TMP DP  RH WIND       PRES   REMARKS
CEDAR RAPIDS   CLOUDY    29  29 100 NW5       30.04R WCI  24
6HR MIN TEMP:  27; 6HR MAX TEMP:  33;

CHARLES CITY * CLOUDY    34  32  93 N7        30.06R WCI  28
CLINTON *      MOCLDY    28  23  80 N13       30.07R WCI  18
6HR MIN TEMP:  27; 6HR MAX TEMP:  30;

DECORAH *      CLOUDY    30  27  86 VRB7      30.06R WCI  23
DUBUQUE        CLOUDY    29  24  82 N16       30.04R WCI  17
6HR MIN TEMP:  29; 6HR MAX TEMP:  32;

MONTICELLO *   CLOUDY    32  30  93 NE12      30.05R WCI  23
OELWEIN *      CLOUDY    32  32 100 NE6       30.06R WCI  26
WATERLOO       CLOUDY    33  31  92 NW6       30.07R WCI  28
6HR MIN TEMP:  29; 6HR MAX TEMP:  33;

$$

IAZ064-065-067-068-078-271300-
   EAST CENTRAL IOWA

CITY           SKY/WX    TMP DP  RH WIND       PRES   REMARKS
DAVENPORT      CLOUDY    32  27  81 N12       30.05R WCI  23
6HR MIN TEMP:  31; 6HR MAX TEMP:  34; 6HR PCP: TRACE;

IOWA CITY      PTCLDY    30  29  96 NW5       30.07R WCI  25
6HR MIN TEMP:  30; 6HR MAX TEMP:  36;

MT. PLEASANT * CLOUDY    33  32  95 N7        30.06R WCI  27
6HR MIN TEMP:  33; 6HR MAX TEMP:  37;

MUSCATINE *    PTCLDY    34  30  86 NW6       30.06R WCI  29
QUAD CITIES    CLOUDY    34  28  79 N8        30.04R WCI  27
6HR MIN TEMP:  32; 6HR MAX TEMP:  36;

$$

IAZ062-063-075>077-085>089-095>099-271300-
   SOUTHEAST IOWA

CITY           SKY/WX    TMP DP  RH WIND       PRES   REMARKS
BURLINGTON     PTCLDY    34  32  92 NW8       30.04R WCI  27
6HR MIN TEMP:  34; 6HR MAX TEMP:  39;

FAIRFIELD *    CLEAR     30  27  86 NW7       30.07R WCI  23
FORT MADISON * MOCLDY    36  34  93 NW5       30.06R WCI  32
KEOKUK *       PTCLDY    34  32  93 NW3       30.05R
OTTUMWA        CLEAR     31  28  89 NW10      30.07R WCI  22
6HR MIN TEMP:  31; 6HR MAX TEMP:  36;

WASHINGTON *   CLOUDY    32  32 100 NW5       30.06R WCI  27
$$

ABBREVIATIONS USED IN REMARKS
   TC - TEMPERATURES IN CELSIUS
  WCI - WIND CHILL INDEX
   HX - HEAT INDEX
  VSB - VISIBILITY
$$


USA.gov is the U.S. government's official web portal to all federal, state and local government web resources and services.